sat.trackr.live / text

‹ back to catalog

STARLINK-36725

NORAD 68285 · 2026-055Z

PAYLOAD ACTIVE UNKNOWN

§ Identity

Operator
Country
US
Launch date
2026-03-19
Launch site
AFETR
Launch vehicle
Mass (kg)
RCS (m²)

Purposes: comms

External: N2YO · Heavens-Above · Gunter

§ Orbital elements

Epoch: 2026-05-24T15:40:21.220896Z

Period
94.11 min
Inclination
53.1592°
Eccentricity
0.0001052
Mean motion
15.30200539 rev/d
Perigee alt
474.5 km
Apogee alt
475.9 km
Semi-major
6,853.4 km
B*
4.5876e-4
RAAN
326.9624°
Arg perigee
27.6805°
Mean anomaly
332.4252°
Rev number
1,155

§ Raw data

STARLINK-367251 68285U 26055Z   26144.65302339  .00013252  00000+0  45876-3 0  99902 68285  53.1592 326.9624 0001052  27.6805 332.4252 15.30200539 11555

JSON: /api/v1/satellites/68285 · /tle

For live sub-satellite position, see the globe view (requires WebGL).

§ Visibility from observer

Set your observer location to see the next 7 days of passes ≥ 10°. The values pass through the URL so the page stays shareable.

No JS? Fill the form by hand. The geolocation button needs JavaScript.